This is the latest recevied weather packets stored in our database for station/object KC9MWQ-13. If no packets are shown the sender has not sent any weather packets the latest 10 day(s).
| Time | Temp. | Humidity | Pressure | Rain* | Wind** | Luminosity | Snow |
|---|---|---|---|---|---|---|---|
| 1777512458 | 8.89° C | 80% | 1015.3 hPa | 0 mm | - | 0 W/m² | - |
| 1777512155 | 8.89° C | 79% | 1015 hPa | 0 mm | - | 0 W/m² | - |
| 1777511852 | 8.89° C | 80% | 1014.9 hPa | 0 mm | - | 0 W/m² | - |
| 1777511550 | 9.44° C | 80% | 1014.7 hPa | 0 mm | - | 0 W/m² | - |
| 1777511247 | 9.44° C | 80% | 1015 hPa | 0 mm | - | 0 W/m² | - |
| 1777510942 | 10° C | 80% | 1014.7 hPa | 0 mm | - | 0 W/m² | - |
| 1777510639 | 10° C | 80% | 1014.9 hPa | 0 mm | - | 0 W/m² | - |
| 1777510336 | 10° C | 79% | 1014.7 hPa | 0 mm | - | 0 W/m² | - |
| 1777510032 | 10° C | 81% | 1014.7 hPa | 0 mm | - | 0 W/m² | - |
| 1777509729 | 10° C | 81% | 1014.6 hPa | 0 mm | - | 0 W/m² | - |
| 1777509424 | 10° C | 81% | 1014.5 hPa | 0 mm | - | 0 W/m² | - |
| 1777509122 | 10.56° C | 82% | 1014.7 hPa | 0 mm | - | 3 W/m² | - |
| 1777508819 | 10.56° C | 81% | 1014.5 hPa | 0 mm | - | 5 W/m² | - |
| 1777508516 | 10.56° C | 82% | 1014.6 hPa | 0 mm | - | 8 W/m² | - |
| 1777508213 | 10.56° C | 81% | 1014.5 hPa | 0 mm | - | 10 W/m² | - |
| 1777507910 | 10.56° C | 80% | 1014.4 hPa | 0 mm | - | 13 W/m² | - |
| 1777507607 | 10.56° C | 80% | 1014.2 hPa | 0 mm | - | 16 W/m² | - |
| 1777507304 | 10.56° C | 81% | 1014.2 hPa | 0 mm | - | 22 W/m² | - |
| 1777507001 | 11.11° C | 81% | 1014.1 hPa | 0 mm | - | 30 W/m² | - |
| 1777506698 | 11.11° C | 80% | 1014 hPa | 0 mm | - | 39 W/m² | - |
| 1777506394 | 11.11° C | 79% | 1014 hPa | 0 mm | - | 40 W/m² | - |
| 1777506091 | 11.11° C | 79% | 1013.9 hPa | 0 mm | - | 43 W/m² | - |
| 1777505786 | 11.67° C | 80% | 1014 hPa | 0 mm | - | 44 W/m² | - |
| 1777505484 | 11.67° C | 78% | 1014.1 hPa | 0 mm | - | 46 W/m² | - |
| 1777505180 | 11.67° C | 78% | 1013.9 hPa | 0 mm | - | 53 W/m² | - |
* Rain latest hour (hover to see other rain measurements)
** Current wind speed in m/s (hover to see current wind gust speed)